Regional Weather Roundup
Issued by NWS

Home | Current Version | Previous Version | Text Only | Print | Product List | Glossary On
Versions: 1 2 3 4 5 6 7 8 9 10 11 12 13 14 15 16 17 18 19 20 21 22 23 24 25 26 27 28 29 30 31 32 33 34 35 36 37 38 39 40 41 42 43 44 45 46 47 48 49 50
046
ASUS44 KEWX 070611
RWRTX
SOUTH TEXAS REGIONAL WEATHER ROUNDUP
NATIONAL WEATHER SERVICE AUSTIN/SAN ANTONIO TX
1200 AM CST SUN FEB 07 2016

NOTE: "FAIR" INDICATED FEW OR NO CLOUDS BELOW 12,000 FEET WITH NO
SIGNIFICANT WEATHER AND/OR OBSTRUCTIONS TO VISIBILITY.

* - THESE STATIONS ARE NOT NWS OR FAA STATIONS...AND ARE NOT SUBJECT
    TO NWS AND FAA QUALITY CONTROL.

TXZ171-172-183>190-070700-
TEXAS HILL COUNTRY AND EDWARDS PLATEAU

CITY           SKY/WX    TMP DP  RH WIND       PRES   REMARKS
JUNCTION       CLOUDY    28  18  66 W3        30.33F
6HR MIN TEMP:  28; 6HR MAX TEMP:  57;

*LLANO         CLEAR     32  23  69 CALM      30.38F
BURNET         CLEAR     37  28  70 CALM      30.36F
6HR MIN TEMP:  36; 6HR MAX TEMP:  54;

*HORSESHOE BAY CLEAR     38  32  77 S5        30.36F WCI  35
6HR MIN TEMP:  34; 6HR MAX TEMP:  56;

*KERRVILLE     PTCLDY    31  25  77 CALM      30.35F
6HR MIN TEMP:  29; 6HR MAX TEMP:  56;

*FREDERICKSBRG CLEAR     26  19  73 CALM      30.34F
6HR MIN TEMP:  25; 6HR MAX TEMP:  52;

*ROCKSPRINGS   CLOUDY    41  21  45 CALM      30.34F
*BOERNE STAGE  PTCLDY    30  21  69 CALM      30.36F
*CASTROVILLE   PTCLDY    33  19  56 NW5       30.37F WCI  29
HONDO          PTCLDY    31  16  54 N8        30.38F WCI  23
6HR MIN TEMP:  30; 6HR MAX TEMP:  60;

*UVALDE        PTCLDY    36  22  56 CALM      30.37S
6HR MIN TEMP:  36; 6HR MAX TEMP:  60;

DEL RIO        PTCLDY    43  20  39 E6        30.33F WCI  39
6HR MIN TEMP:  40; 6HR MAX TEMP:  65;

LAUGHLIN AFB   PTCLDY    36  19  49 E5        30.32F WCI  32
6HR MIN TEMP:  36; 6HR MAX TEMP:  64;

CARRIZO SPRGS  CLEAR     37  23  56 CALM      30.35S
*EAGLE PASS    CLEAR     43  19  39 S6        30.35F WCI  39
$$

TXZ173-191>194-202-209-217>225-228-070700-
CENTRAL AND SOUTH CENTRAL TEXAS

CITY           SKY/WX    TMP DP  RH WIND       PRES   REMARKS
GEORGETOWN     CLEAR     34  27  75 W3        30.36F
6HR MIN TEMP:  30; 6HR MAX TEMP:  54;

AUSTIN/BERGSTM CLEAR     34  31  88 CALM      30.38F
6HR MIN TEMP:  32; 6HR MAX TEMP:  55;

AUSTIN/MABRY   CLEAR     40  34  79 CALM      30.38F
6HR MIN TEMP:  40; 6HR MAX TEMP:  56;

*AUSTIN/EXEC   CLEAR     39  36  87 CALM      30.38S
*LAGO VISTA    CLEAR     40  34  81 SE6       30.35F WCI  36
6HR MIN TEMP:  39; 6HR MAX TEMP:  53;

SAN MARCOS     CLEAR     36  25  64 NW5       30.39S WCI  32
6HR MIN TEMP:  36; 6HR MAX TEMP:  55;

NEW BRAUNFELS  PTCLDY    35  27  72 NE6       30.37S WCI  30
6HR MIN TEMP:  35; 6HR MAX TEMP:  57;

RANDOLPH AFB   PTCLDY    36  26  65 N5        30.36F WCI  32
6HR MIN TEMP:  36; 6HR MAX TEMP:  57;

PT SAN ANTONIO PTCLDY    38  24  55 NE5       30.34F WCI  35
6HR MIN TEMP:  34; 6HR MAX TEMP:  57;

SAN ANTONIO    PTCLDY    42  26  53 CALM      30.37S
6HR MIN TEMP:  39; 6HR MAX TEMP:  58;

STINSON FIELD  PTCLDY    45  25  45 NE6       30.35F WCI  42
6HR MIN TEMP:  38; 6HR MAX TEMP:  61;

*PLEASANTON    PTCLDY    34  24  67 CALM      30.39S
6HR MIN TEMP:  33; 6HR MAX TEMP:  61;

*LA GRANGE     CLEAR     37  34  91 CALM      30.36F
6HR MIN TEMP:  37; 6HR MAX TEMP:  55;

*GIDDINGS      CLEAR     35  33  93 CALM      30.40F
6HR MIN TEMP:  34; 6HR MAX TEMP:  51;

*GONZALES      CLEAR     41  36  82 CALM      30.37S
6HR MIN TEMP:  41; 6HR MAX TEMP:  57;

$$

TXZ163>164-176>182-195>201-210>213-226-227-235-070700-
SOUTHEAST TEXAS

CITY           SKY/WX    TMP DP  RH WIND       PRES   REMARKS
COLLEGE STN    CLEAR     40  36  86 NE5       30.38S WCI  37
6HR MIN TEMP:  39; 6HR MAX TEMP:  48;

*BRYAN         CLEAR     36  35  96 CALM      30.38F
6HR MIN TEMP:  36; 6HR MAX TEMP:  46;

*CALDWELL      CLEAR     39  36  87 CALM      30.40F
*CROCKETT      CLEAR     32  32 100 CALM      30.40S
*BRENHAM       CLEAR     38  36  93 CALM      30.39S
6HR MIN TEMP:  37; 6HR MAX TEMP:  51;

HUNTSVILLE     CLEAR     38  34  85 CALM      30.37S
6HR MIN TEMP:  37; 6HR MAX TEMP:  51;

CONROE         CLEAR     34  32  92 CALM      30.38S
6HR MIN TEMP:  34; 6HR MAX TEMP:  51;

HOUSTON BUSH   CLEAR     43  36  76 CALM      30.37F
6HR MIN TEMP:  42; 6HR MAX TEMP:  55;

HOUSTON HOBBY  CLEAR     44  37  76 N5        30.36F WCI  42
6HR MIN TEMP:  44; 6HR MAX TEMP:  56;

*HOUSTON SW AP CLEAR     40  37  89 CALM      30.39S
6HR MIN TEMP:  39; 6HR MAX TEMP:  54;

PEARLAND       CLEAR     45  38  76 N3        30.38F
6HR MIN TEMP:  45; 6HR MAX TEMP:  58;

HOUSTON HOOKS  CLEAR     41  36  82 N5        30.37F WCI  38
6HR MIN TEMP:  41; 6HR MAX TEMP:  53;

ELLINGTON FLD  CLEAR     46  37  71 NW3       30.38F
SUGAR LAND     CLEAR     41  36  82 N3        30.37F
6HR MIN TEMP:  39; 6HR MAX TEMP:  53;

*HOUSTON EXEC  CLEAR     37  36  93 CALM      30.39S
*CLEVELAND MUN CLEAR     34  34 100 CALM      30.38F
6HR MIN TEMP:  34; 6HR MAX TEMP:  51;

*WHARTON       CLEAR     38  34  86 N5        30.38F WCI  34
6HR MIN TEMP:  38; 6HR MAX TEMP:  53;

*COLUMBUS      FAIR      38  36  92 W5        30.38R WCI  34
6HR MIN TEMP:  38; 6HR MAX TEMP:  53;

*EAGLE LAKE    CLEAR     38  36  91 N3        30.37F
6HR MIN TEMP:  38; 6HR MAX TEMP:  52;

$$

TXZ214>216-236>238-070700-
THE UPPER TEXAS COAST

CITY           SKY/WX    TMP DP  RH WIND       PRES   REMARKS
*ORANGE          N/A     36  34  92 CALM      30.38F FOG
6HR MIN TEMP:  35; 6HR MAX TEMP:  46;

PORT ARTHUR    CLEAR     38  37  97 W3        30.37F FOG
6HR MIN TEMP:  38; 6HR MAX TEMP:  47;

GALVESTON      PTCLDY    48  42  80 N5        30.38F WCI  46
6HR MIN TEMP:  47; 6HR MAX TEMP:  56;

ANGLETON       CLEAR     41  37  86 N5        30.37F WCI  38
6HR MIN TEMP:  40; 6HR MAX TEMP:  56;

*BAY CITY      CLEAR     43  38  83 CALM      30.38S
PALACIOS       CLEAR     41  37  86 NE5       30.39S WCI  38
6HR MIN TEMP:  41; 6HR MAX TEMP:  57;

$$

TXZ229>234-239>247-070700-
TEXAS COASTAL BEND AND RIO GRANDE PLAINS

CITY           SKY/WX    TMP DP  RH WIND       PRES   REMARKS
VICTORIA       CLEAR     38  35  89 CALM      30.40R
6HR MIN TEMP:  37; 6HR MAX TEMP:  57;

*BEEVILLE      CLEAR     42  29  61 NE6       30.38S WCI  38
6HR MIN TEMP:  41; 6HR MAX TEMP:  63;

ROCKPORT       CLEAR     52  40  63 NE12      30.38S
6HR MIN TEMP:  52; 6HR MAX TEMP:  63;

*PORT ARANSAS  CLEAR     53  43  69 NE10      30.37S
6HR MIN TEMP:  50; 6HR MAX TEMP:  61;

*PORT LAVACA   CLEAR     43  38  80 NE5       30.39S WCI  40
6HR MIN TEMP:  43; 6HR MAX TEMP:  58;

*INGLESIDE     CLEAR     47  33  57 NE6       30.38S WCI  44
CORPUS CHRISTI CLEAR     49  32  52 NE7       30.37F WCI  46
6HR MIN TEMP:  46; 6HR MAX TEMP:  64;

CORPUS NAS     CLEAR     55  40  56 NE14      30.37F
6HR MIN TEMP:  54; 6HR MAX TEMP:  63;

*ROBSTOWN      CLEAR     41  21  45 CALM      30.38S
6HR MIN TEMP:  41; 6HR MAX TEMP:  64;

ALICE          CLEAR     40  24  53 N5        30.37S WCI  37
6HR MIN TEMP:  39; 6HR MAX TEMP:  64;

KINGSVILLE NAS CLOUDY    41  26  55 N5        30.37S WCI  38
6HR MIN TEMP:  40; 6HR MAX TEMP:  63;

COTULLA        CLEAR     43  21  41 E5        30.36F WCI  40
6HR MIN TEMP:  42; 6HR MAX TEMP:  65;

*FAITH RANCH   CLEAR     48  16  27 E7        30.35F WCI  45
LAREDO         CLEAR     45  20  36 E6        30.36F WCI  42
6HR MIN TEMP:  43; 6HR MAX TEMP:  63;

$$

TXZ248>255-070700-
DEEP SOUTH TEXAS

CITY           SKY/WX    TMP DP  RH WIND       PRES   REMARKS
BROWNSVILLE    CLEAR     44  37  76 N3        30.37F
6HR MIN C1F1C2F2C3F3C4F4C5F5C6F6C7M1C8M2C9!



USA.gov is the U.S. government's official web portal to all federal, state and local government web resources and services.